Location: Bailleul
(50.3375°N, 2.8513°E)
Time: 19:41:37
(UTC+00:00)

Cosmos 1151 Rocket - Pass Details

Date: 19 April 2021
Orbit: 593 x 615 km, 82.5° (Epoch: 18 May)

Event Time Altitude Azimuth Distance (km) Brightness Sun altitude
Exits shadow 23:34:05 47° 9° (N) 802 3.9 -28.1°
Drops below altitude 10° 23:37:14 10° 10° (N) 1,964 6.5 -28.1°
Sets 23:39:28 0° 11° (N) 2,876 7.7 -28.1°
